Time,TemperatureF,DewpointF,PressureIn,WindDirection,WindDirectionDegrees,WindSpeedMPH,WindSpeedGustMPH,Humidity,HourlyPrecipIn,Conditions,Clouds,dailyrainin,SoftwareType,DateUTC
2013-01-14 00:04:00,33.0,33.0,-100.00,WNW,285,10.0,18.0,99,-99.99,,,-99.99,,2013-01-14 05:04:00,
2013-01-14 00:12:00,33.0,33.0,-100.00,WNW,295,9.0,17.0,99,-99.99,,,-99.99,,2013-01-14 05:12:00,
2013-01-14 00:22:00,33.0,33.0,-100.00,WNW,295,10.0,19.0,99,-99.99,,,-99.99,,2013-01-14 05:22:00,
2013-01-14 00:33:00,32.0,32.0,-100.00,WNW,295,10.0,16.0,100,-99.99,,,-99.99,,2013-01-14 05:33:00,
2013-01-14 00:42:00,32.0,32.0,-100.00,WNW,285,15.0,23.0,99,-99.99,,,-99.99,,2013-01-14 05:42:00,
2013-01-14 00:52:00,31.0,31.0,-100.00,WNW,290,10.0,22.0,99,-99.99,,,-99.99,,2013-01-14 05:52:00,
2013-01-14 01:03:00,31.0,31.0,-100.00,West,280,11.0,17.0,99,-99.99,,,-99.99,,2013-01-14 06:03:00,
2013-01-14 01:12:00,31.0,30.0,-100.00,WNW,285,10.0,18.0,98,-99.99,,,-99.99,,2013-01-14 06:12:00,
2013-01-14 01:22:00,31.0,30.0,-100.00,WNW,285,10.0,18.0,98,-99.99,,,-99.99,,2013-01-14 06:22:00,
2013-01-14 01:33:00,31.0,30.0,-100.00,WNW,285,12.0,17.0,96,-99.99,,,-99.99,,2013-01-14 06:33:00,
2013-01-14 01:43:00,31.0,29.0,-100.00,WNW,295,9.0,17.0,95,-99.99,,,-99.99,,2013-01-14 06:43:00,
2013-01-14 01:52:00,31.0,30.0,-100.00,WNW,295,9.0,17.0,94,-99.99,,,-99.99,,2013-01-14 06:52:00,
2013-01-14 02:02:00,31.0,30.0,-100.00,WNW,290,11.0,19.0,94,-99.99,,,-99.99,,2013-01-14 07:02:00,
2013-01-14 02:12:00,30.0,29.0,-100.00,West,270,9.0,16.0,92,-99.99,,,-99.99,,2013-01-14 07:12:00,
2013-01-14 02:22:00,30.0,28.0,-100.00,WNW,290,14.0,21.0,91,-99.99,,,-99.99,,2013-01-14 07:22:00,
2013-01-14 02:33:00,30.0,27.0,-100.00,WNW,295,14.0,23.0,89,-99.99,,,-99.99,,2013-01-14 07:33:00,
2013-01-14 02:42:00,30.0,27.0,-100.00,WNW,295,9.0,20.0,88,-99.99,,,-99.99,,2013-01-14 07:42:00,
2013-01-14 02:52:00,30.0,27.0,-100.00,West,265,10.0,18.0,88,-99.99,,,-99.99,,2013-01-14 07:52:00,
2013-01-14 03:02:00,29.0,26.0,-100.00,WNW,290,13.0,22.0,88,-99.99,,,-99.99,,2013-01-14 08:02:00,
2013-01-14 03:12:00,29.0,26.0,-100.00,WNW,290,11.0,18.0,87,-99.99,,,-99.99,,2013-01-14 08:12:00,
2013-01-14 03:22:00,29.0,26.0,-100.00,West,280,13.0,19.0,88,-99.99,,,-99.99,,2013-01-14 08:22:00,
2013-01-14 03:33:00,29.0,26.0,-100.00,WNW,295,13.0,19.0,87,-99.99,,,-99.99,,2013-01-14 08:33:00,
2013-01-14 03:42:00,29.0,26.0,-100.00,WNW,295,12.0,17.0,88,-99.99,,,-99.99,,2013-01-14 08:42:00,
2013-01-14 03:52:00,29.0,26.0,-100.00,WNW,295,9.0,18.0,88,-99.99,,,-99.99,,2013-01-14 08:52:00,
2013-01-14 04:03:00,28.0,25.0,-100.00,WNW,290,11.0,16.0,88,-99.99,,,-99.99,,2013-01-14 09:03:00,
2013-01-14 04:12:00,28.0,25.0,-100.00,WNW,295,11.0,19.0,88,-99.99,,,-99.99,,2013-01-14 09:12:00,
2013-01-14 04:22:00,28.0,25.0,-100.00,WNW,300,8.0,16.0,88,-99.99,,,-99.99,,2013-01-14 09:22:00,
2013-01-14 04:33:00,27.0,24.0,-100.00,WNW,300,10.0,19.0,88,-99.99,,,-99.99,,2013-01-14 09:33:00,
2013-01-14 04:43:00,27.0,24.0,-100.00,WNW,300,16.0,24.0,88,-99.99,,,-99.99,,2013-01-14 09:43:00,
2013-01-14 04:52:00,26.0,23.0,-100.00,WNW,295,9.0,19.0,88,-99.99,,,-99.99,,2013-01-14 09:52:00,
2013-01-14 05:02:00,26.0,23.0,-100.00,WNW,295,11.0,21.0,88,-99.99,,,-99.99,,2013-01-14 10:02:00,
2013-01-14 05:12:00,26.0,23.0,-100.00,WNW,290,9.0,17.0,88,-99.99,,,-99.99,,2013-01-14 10:12:00,
2013-01-14 05:23:00,26.0,23.0,-100.00,WNW,300,7.0,16.0,88,-99.99,,,-99.99,,2013-01-14 10:23:00,
2013-01-14 05:32:00,26.0,23.0,-100.00,WNW,295,12.0,21.0,88,-99.99,,,-99.99,,2013-01-14 10:32:00,
2013-01-14 05:42:00,26.0,23.0,-100.00,NW,305,9.0,14.0,89,-99.99,,,-99.99,,2013-01-14 10:42:00,
2013-01-14 05:52:00,26.0,23.0,-100.00,WNW,295,9.0,14.0,89,-99.99,,,-99.99,,2013-01-14 10:52:00,
2013-01-14 06:02:00,26.0,23.0,-100.00,WNW,295,9.0,14.0,89,-99.99,,,-99.99,,2013-01-14 11:02:00,
2013-01-14 06:12:00,26.0,23.0,-100.00,WNW,295,9.0,14.0,89,-99.99,,,-99.99,,2013-01-14 11:12:00,
2013-01-14 06:22:00,25.0,22.0,-100.00,West,280,11.0,21.0,89,-99.99,,,-99.99,,2013-01-14 11:22:00,
2013-01-14 06:33:00,25.0,22.0,-100.00,WNW,285,9.0,16.0,89,-99.99,,,-99.99,,2013-01-14 11:33:00,
2013-01-14 06:43:00,25.0,22.0,-100.00,WNW,285,11.0,17.0,88,-99.99,,,-99.99,,2013-01-14 11:43:00,
2013-01-14 06:53:00,25.0,22.0,-100.00,West,280,7.0,14.0,88,-99.99,,,-99.99,,2013-01-14 11:53:00,
2013-01-14 07:03:00,25.0,22.0,-100.00,WNW,285,9.0,14.0,88,-99.99,,,-99.99,,2013-01-14 12:03:00,
2013-01-14 07:12:00,25.0,22.0,-100.00,West,280,7.0,17.0,88,-99.99,,,-99.99,,2013-01-14 12:12:00,
2013-01-14 07:23:00,24.0,22.0,-100.00,West,280,12.0,17.0,88,-99.99,,,-99.99,,2013-01-14 12:23:00,
2013-01-14 07:33:00,25.0,22.0,-100.00,West,280,11.0,18.0,88,-99.99,,,-99.99,,2013-01-14 12:33:00,
2013-01-14 07:43:00,25.0,22.0,-100.00,West,275,7.0,13.0,88,-99.99,,,-99.99,,2013-01-14 12:43:00,
2013-01-14 07:53:00,25.0,22.0,-100.00,West,275,9.0,14.0,88,-99.99,,,-99.99,,2013-01-14 12:53:00,
2013-01-14 08:03:00,25.0,22.0,-100.00,WNW,285,7.0,13.0,88,-99.99,,,-99.99,,2013-01-14 13:03:00,
2013-01-14 08:12:00,25.0,22.0,-100.00,WNW,295,9.0,12.0,88,-99.99,,,-99.99,,2013-01-14 13:12:00,
2013-01-14 08:23:00,25.0,22.0,-100.00,WNW,295,9.0,12.0,88,-99.99,,,-99.99,,2013-01-14 13:23:00,
2013-01-14 08:33:00,25.0,21.0,-100.00,WNW,300,7.0,14.0,87,-99.99,,,-99.99,,2013-01-14 13:33:00,
2013-01-14 08:43:00,25.0,22.0,-100.00,West,275,7.0,11.0,87,-99.99,,,-99.99,,2013-01-14 13:43:00,
2013-01-14 08:53:00,25.0,22.0,-100.00,NW,305,7.0,12.0,87,-99.99,,,-99.99,,2013-01-14 13:53:00,
2013-01-14 09:03:00,25.0,22.0,-100.00,West,280,6.0,11.0,87,-99.99,,,-99.99,,2013-01-14 14:03:00,
2013-01-14 09:13:00,25.0,22.0,-100.00,WNW,285,6.0,10.0,87,-99.99,,,-99.99,,2013-01-14 14:13:00,
2013-01-14 09:23:00,25.0,22.0,-100.00,NW,305,6.0,10.0,87,-99.99,,,-99.99,,2013-01-14 14:23:00,
2013-01-14 09:33:00,25.0,22.0,-100.00,NNW,340,4.0,9.0,87,-99.99,,,-99.99,,2013-01-14 14:33:00,
2013-01-14 09:43:00,25.0,22.0,-100.00,NW,305,6.0,11.0,87,-99.99,,,-99.99,,2013-01-14 14:43:00,
2013-01-14 09:53:00,25.0,22.0,-100.00,NW,310,4.0,9.0,87,-99.99,,,-99.99,,2013-01-14 14:53:00,
2013-01-14 10:03:00,25.0,22.0,-100.00,NNW,340,6.0,12.0,87,-99.99,,,-99.99,,2013-01-14 15:03:00,
2013-01-14 10:12:00,25.0,22.0,-100.00,NNW,345,7.0,11.0,87,-99.99,,,-99.99,,2013-01-14 15:12:00,
2013-01-14 10:23:00,25.0,22.0,-100.00,NNW,335,7.0,12.0,86,-99.99,,,-99.99,,2013-01-14 15:23:00,
2013-01-14 10:33:00,25.0,22.0,-100.00,NNW,330,6.0,11.0,86,-99.99,,,-99.99,,2013-01-14 15:33:00,
2013-01-14 10:43:00,25.0,22.0,-100.00,NW,305,6.0,12.0,85,-99.99,,,-99.99,,2013-01-14 15:43:00,
2013-01-14 10:53:00,26.0,22.0,-100.00,NW,320,6.0,12.0,85,-99.99,,,-99.99,,2013-01-14 15:53:00,
2013-01-14 11:03:00,26.0,22.0,-100.00,NNW,335,6.0,9.0,84,-99.99,,,-99.99,,2013-01-14 16:03:00,
2013-01-14 11:12:00,26.0,22.0,-100.00,NW,320,6.0,11.0,85,-99.99,,,-99.99,,2013-01-14 16:12:00,
2013-01-14 11:23:00,26.0,22.0,-100.00,North,0,2.0,11.0,84,-99.99,,,-99.99,,2013-01-14 16:23:00,
2013-01-14 11:33:00,26.0,22.0,-100.00,NW,320,4.0,9.0,84,-99.99,,,-99.99,,2013-01-14 16:33:00,
2013-01-14 11:43:00,26.0,22.0,-100.00,NNW,340,6.0,7.0,84,-99.99,,,-99.99,,2013-01-14 16:43:00,
2013-01-14 11:53:00,26.0,21.0,-100.00,NNW,340,3.0,7.0,83,-99.99,,,-99.99,,2013-01-14 16:53:00,
2013-01-14 12:03:00,26.0,21.0,-100.00,NNW,335,4.0,8.0,82,-99.99,,,-99.99,,2013-01-14 17:03:00,
2013-01-14 12:12:00,26.0,21.0,-100.00,WNW,285,4.0,7.0,82,-99.99,,,-99.99,,2013-01-14 17:12:00,
2013-01-14 12:23:00,26.0,21.0,-100.00,NNW,340,2.0,7.0,82,-99.99,,,-99.99,,2013-01-14 17:23:00,
2013-01-14 12:33:00,26.0,21.0,-100.00,NNW,335,6.0,9.0,81,-99.99,,,-99.99,,2013-01-14 17:33:00,
2013-01-14 12:43:00,26.0,21.0,-100.00,North,350,3.0,6.0,81,-99.99,,,-99.99,,2013-01-14 17:43:00,
2013-01-14 12:53:00,26.0,21.0,-100.00,NW,320,4.0,7.0,80,-99.99,,,-99.99,,2013-01-14 17:53:00,
2013-01-14 13:03:00,26.0,21.0,-100.00,NNW,345,6.0,9.0,79,-99.99,,,-99.99,,2013-01-14 18:03:00,
2013-01-14 13:13:00,26.0,20.0,-100.00,NW,315,4.0,9.0,79,-99.99,,,-99.99,,2013-01-14 18:13:00,
2013-01-14 13:23:00,26.0,20.0,-100.00,NNW,345,4.0,6.0,77,-99.99,,,-99.99,,2013-01-14 18:23:00,
2013-01-14 13:33:00,27.0,21.0,-100.00,NW,305,2.0,4.0,77,-99.99,,,-99.99,,2013-01-14 18:33:00,
2013-01-14 13:43:00,27.0,21.0,-100.00,NW,305,2.0,4.0,77,-99.99,,,-99.99,,2013-01-14 18:43:00,
2013-01-14 13:52:00,27.0,20.0,-100.00,WNW,295,4.0,8.0,75,-99.99,,,-99.99,,2013-01-14 18:52:00,
2013-01-14 14:03:00,27.0,20.0,-100.00,West,275,4.0,7.0,75,-99.99,,,-99.99,,2013-01-14 19:03:00,
2013-01-14 14:12:00,27.0,20.0,-100.00,West,275,4.0,7.0,75,-99.99,,,-99.99,,2013-01-14 19:12:00,
2013-01-14 14:22:00,27.0,20.0,-100.00,North,0,4.0,6.0,74,-99.99,,,-99.99,,2013-01-14 19:22:00,
2013-01-14 14:33:00,27.0,20.0,-100.00,NNW,335,4.0,7.0,74,-99.99,,,-99.99,,2013-01-14 19:33:00,
2013-01-14 14:43:00,27.0,20.0,-100.00,WNW,285,4.0,6.0,73,-99.99,,,-99.99,,2013-01-14 19:43:00,
2013-01-14 14:53:00,27.0,20.0,-100.00,West,270,5.0,8.0,73,-99.99,,,-99.99,,2013-01-14 19:53:00,
2013-01-14 15:03:00,27.0,19.0,-100.00,NNW,335,4.0,7.0,72,-99.99,,,-99.99,,2013-01-14 20:03:00,
2013-01-14 15:13:00,27.0,20.0,-100.00,West,280,3.0,7.0,72,-99.99,,,-99.99,,2013-01-14 20:13:00,
2013-01-14 15:22:00,27.0,19.0,-100.00,WNW,285,4.0,9.0,72,-99.99,,,-99.99,,2013-01-14 20:22:00,
2013-01-14 15:33:00,27.0,20.0,-100.00,North,355,2.0,8.0,72,-99.99,,,-99.99,,2013-01-14 20:33:00,
2013-01-14 15:43:00,27.0,20.0,-100.00,NW,320,4.0,9.0,73,-99.99,,,-99.99,,2013-01-14 20:43:00,
2013-01-14 15:53:00,27.0,19.0,-100.00,NNE,20,4.0,8.0,73,-99.99,,,-99.99,,2013-01-14 20:53:00,
2013-01-14 16:03:00,27.0,20.0,-100.00,NNW,345,2.0,6.0,73,-99.99,,,-99.99,,2013-01-14 21:03:00,
2013-01-14 16:12:00,27.0,20.0,-100.00,NW,315,4.0,7.0,73,-99.99,,,-99.99,,2013-01-14 21:12:00,
2013-01-14 16:23:00,27.0,20.0,-100.00,NNW,330,6.0,8.0,74,-99.99,,,-99.99,,2013-01-14 21:23:00,
2013-01-14 16:33:00,27.0,20.0,-100.00,NNW,345,4.0,6.0,74,-99.99,,,-99.99,,2013-01-14 21:33:00,
2013-01-14 16:43:00,27.0,20.0,-100.00,WNW,290,4.0,6.0,74,-99.99,,,-99.99,,2013-01-14 21:43:00,
2013-01-14 16:53:00,27.0,20.0,-100.00,West,275,1.0,6.0,74,-99.99,,,-99.99,,2013-01-14 21:53:00,
2013-01-14 17:03:00,27.0,20.0,-100.00,WSW,250,3.0,4.0,74,-99.99,,,-99.99,,2013-01-14 22:03:00,
2013-01-14 17:12:00,27.0,20.0,-100.00,NNW,330,4.0,6.0,74,-99.99,,,-99.99,,2013-01-14 22:12:00,
2013-01-14 17:23:00,27.0,20.0,-100.00,NNW,335,2.0,6.0,74,-99.99,,,-99.99,,2013-01-14 22:23:00,
2013-01-14 17:33:00,27.0,20.0,-100.00,NNW,335,2.0,6.0,74,-99.99,,,-99.99,,2013-01-14 22:33:00,
2013-01-14 17:43:00,27.0,20.0,-100.00,North,350,4.0,4.0,75,-99.99,,,-99.99,,2013-01-14 22:43:00,
2013-01-14 17:52:00,27.0,20.0,-100.00,WSW,255,4.0,6.0,75,-99.99,,,-99.99,,2013-01-14 22:52:00,
2013-01-14 18:03:00,27.0,20.0,-100.00,WNW,290,2.0,5.0,75,-99.99,,,-99.99,,2013-01-14 23:03:00,
2013-01-14 18:12:00,27.0,20.0,-100.00,WNW,285,3.0,6.0,75,-99.99,,,-99.99,,2013-01-14 23:12:00,
2013-01-14 18:23:00,27.0,20.0,-100.00,NNW,335,2.0,6.0,75,-99.99,,,-99.99,,2013-01-14 23:23:00,
2013-01-14 18:33:00,27.0,20.0,-100.00,West,275,3.0,6.0,75,-99.99,,,-99.99,,2013-01-14 23:33:00,
2013-01-14 18:43:00,27.0,20.0,-100.00,NNW,340,4.0,6.0,76,-99.99,,,-99.99,,2013-01-14 23:43:00,
2013-01-14 18:53:00,27.0,20.0,-100.00,NNW,330,4.0,7.0,77,-99.99,,,-99.99,,2013-01-14 23:53:00,
2013-01-14 19:03:00,27.0,20.0,-100.00,West,280,2.0,6.0,77,-99.99,,,-99.99,,2013-01-15 00:03:00,
2013-01-14 19:12:00,27.0,21.0,-100.00,NW,320,5.0,7.0,77,-99.99,,,-99.99,,2013-01-15 00:12:00,
2013-01-14 19:23:00,26.0,20.0,-100.00,NNW,340,6.0,9.0,77,-99.99,,,-99.99,,2013-01-15 00:23:00,
2013-01-14 19:33:00,27.0,21.0,-100.00,North,350,4.0,9.0,78,-99.99,,,-99.99,,2013-01-15 00:33:00,
2013-01-14 19:43:00,26.0,21.0,-100.00,NNW,330,4.0,7.0,79,-99.99,,,-99.99,,2013-01-15 00:43:00,
2013-01-14 19:52:00,26.0,21.0,-100.00,NNW,330,3.0,7.0,79,-99.99,,,-99.99,,2013-01-15 00:52:00,
2013-01-14 20:02:00,26.0,21.0,-100.00,NW,320,2.0,6.0,79,-99.99,,,-99.99,,2013-01-15 01:02:00,
2013-01-14 20:12:00,26.0,21.0,-100.00,NW,320,3.0,5.0,79,-99.99,,,-99.99,,2013-01-15 01:12:00,
2013-01-14 20:22:00,26.0,21.0,-100.00,NNW,330,4.0,7.0,79,-99.99,,,-99.99,,2013-01-15 01:22:00,
2013-01-14 20:32:00,26.0,21.0,-100.00,NNW,340,4.0,6.0,80,-99.99,,,-99.99,,2013-01-15 01:32:00,
2013-01-14 20:43:00,26.0,21.0,-100.00,NNW,340,4.0,6.0,80,-99.99,,,-99.99,,2013-01-15 01:43:00,
2013-01-14 20:52:00,26.0,21.0,-100.00,NW,325,3.0,7.0,80,-99.99,,,-99.99,,2013-01-15 01:52:00,
2013-01-14 21:02:00,26.0,21.0,-100.00,NNW,335,3.0,7.0,80,-99.99,,,-99.99,,2013-01-15 02:02:00,
2013-01-14 21:12:00,26.0,21.0,-100.00,North,355,2.0,6.0,81,-99.99,,,-99.99,,2013-01-15 02:12:00,
2013-01-14 21:23:00,26.0,21.0,-100.00,NNW,340,3.0,4.0,81,-99.99,,,-99.99,,2013-01-15 02:23:00,
2013-01-14 21:33:00,26.0,21.0,-100.00,North,5,1.0,4.0,81,-99.99,,,-99.99,,2013-01-15 02:33:00,
2013-01-14 21:42:00,25.0,20.0,-100.00,NNE,25,1.0,3.0,81,-99.99,,,-99.99,,2013-01-15 02:42:00,
2013-01-14 21:52:00,25.0,20.0,-100.00,North,0,2.0,3.0,81,-99.99,,,-99.99,,2013-01-15 02:52:00,
2013-01-14 22:03:00,25.0,20.0,-100.00,NNW,335,1.0,2.0,82,-99.99,,,-99.99,,2013-01-15 03:03:00,
2013-01-14 22:12:00,25.0,20.0,-100.00,NNW,335,0.0,2.0,82,-99.99,,,-99.99,,2013-01-15 03:12:00,
2013-01-14 22:22:00,25.0,20.0,-100.00,NNW,335,1.0,2.0,82,-99.99,,,-99.99,,2013-01-15 03:22:00,
2013-01-14 22:33:00,25.0,20.0,-100.00,North,0,2.0,2.0,82,-99.99,,,-99.99,,2013-01-15 03:33:00,
2013-01-14 22:42:00,25.0,20.0,-100.00,North,0,2.0,2.0,83,-99.99,,,-99.99,,2013-01-15 03:42:00,
2013-01-14 22:52:00,24.0,20.0,-100.00,North,5,1.0,2.0,83,-99.99,,,-99.99,,2013-01-15 03:52:00,
2013-01-14 23:03:00,24.0,20.0,-100.00,North,5,1.0,2.0,83,-99.99,,,-99.99,,2013-01-15 04:03:00,
2013-01-14 23:12:00,24.0,20.0,-100.00,NNW,340,2.0,2.0,84,-99.99,,,-99.99,,2013-01-15 04:12:00,
2013-01-14 23:22:00,24.0,20.0,-100.00,North,350,2.0,2.0,84,-99.99,,,-99.99,,2013-01-15 04:22:00,
2013-01-14 23:32:00,24.0,20.0,-100.00,NNW,345,1.0,2.0,85,-99.99,,,-99.99,,2013-01-15 04:32:00,
2013-01-14 23:42:00,24.0,20.0,-100.00,NNW,345,1.0,2.0,85,-99.99,,,-99.99,,2013-01-15 04:42:00,
2013-01-14 23:52:00,24.0,20.0,-100.00,NNW,345,2.0,2.0,86,-99.99,,,-99.99,,2013-01-15 04:52:00,